Wind_Speed
24 25 26 25 26 27 29 31 33 35 38 39 41 42 43 44 44 45 46 47 48 49 50 50 51 51 51 50 50 49 49 49 50 50 50 49 49 49 49 47 44 41 39 37 36 37 38 40 41 42 43 43 43 43 42 42 42 42 41 40 40 40
25 26 27 28 30 31 33 34 36 38 39 41 42 44 45 47 48 49 50 51 51 51 51 50 49 48 47 47 47 47 47 46 46 46 46 46 47 47 48 48 47 45 43 41 39 38 37 38 39 41 43 43 44 44 43 42 42 42 42 41 41 41
28 30 32 34 36 36 37 39 40 42 43 45 46 48 49 50 52 53 53 53 53 52 51 49 48 47 46 45 44 44 44 44 44 44 44 43 43 43 43 44 44 45 44 43 42 41 40 39 39 40 41 43 44 45 46 45 45 44 43 42 42 41
33 35 37 38 39 40 41 43 45 46 48 49 50 51 51 51 51 51 51 51 50 49 48 47 46 45 44 43 43 42 42 42 42 43 43 43 43 43 43 43 43 43 43 44 44 44 43 43 42 42 42 42 43 44 46 47 48 48 47 46 45 44
36 37 39 41 42 43 45 46 48 48 49 49 49 49 48 47 47 46 46 45 45 43 42 42 41 41 41 40 41 41 41 41 41 41 42 42 43 44 45 45 46 46 46 46 46 46 46 47 47 47 46 46 46 46 46 47 48 50 50 51 50 49
39 40 41 42 43 44 45 46 46 46 45 45 45 44 43 43 42 41 40 38 37 37 37 37 37 37 37 37 38 38 39 40 40 41 41 42 42 43 43 45 46 47 48 48 49 49 49 49 50 50 50 50 51 51 50 50 50 51 51 52 53 53
39 40 41 41 42 42 42 41 41 41 41 40 40 38 37 36 35 33 32 31 32 33 33 33 33 33 34 34 35 36 36 38 38 39 41 41 42 43 43 44 45 47 48 49 50 51 52 52 53 53 53 53 54 54 54 54 54 54 54 54 54 55
38 38 39 39 40 40 39 39 38 38 37 36 35 33 32 31 30 30 29 30 31 31 31 31 31 32 33 34 35 36 36 38 39 40 41 42 43 44 45 46 47 48 49 50 52 53 54 55 55 56 56 56 56 56 56 56 57 57 57 57 57 57
37 37 37 37 38 39 39 38 37 36 35 33 32 32 31 30 30 29 29 30 30 30 30 31 32 33 34 35 37 38 39 40 41 43 44 45 46 47 47 48 49 50 50 51 52 53 54 55 56 57 58 58 59 59 58 58 58 59 59 60 60 60
37 37 38 39 40 40 39 37 36 34 33 33 32 32 30 29 29 29 29 30 30 31 32 33 34 35 37 37 38 39 39 41 42 43 44 45 46 46 47 48 48 49 50 50 51 52 53 54 55 56 58 59 61 62 63 63 63 63 63 63 63 63
39 39 40 40 39 38 36 35 34 33 32 32 31 30 29 29 29 30 30 31 32 33 35 36 37 38 39 40 40 40 40 40 41 41 42 43 44 45 46 46 47 48 49 49 50 52 53 54 55 56 58 60 62 64 66 67 68 69 69 69 68 68
39 40 40 39 37 35 34 33 32 32 31 30 30 30 30 31 32 33 34 35 36 37 38 39 40 41 41 41 41 41 41 41 41 41 42 42 43 44 45 46 47 48 49 50 51 52 53 55 56 58 60 63 65 67 69 70 71 72 73 73 74 73
40 40 40 38 35 34 32 31 31 31 31 31 31 32 33 34 35 37 38 39 40 41 42 43 43 43 42 42 42 42 42 42 43 43 44 44 45 45 46 47 48 49 50 52 54 55 56 57 58 61 64 67 69 71 73 75 75 75 76 76 77 77
41 40 38 36 34 32 31 30 30 31 31 32 33 34 36 37 39 40 41 42 43 44 45 44 44 43 43 43 43 43 43 44 45 45 46 47 47 48 48 49 50 51 53 56 58 59 61 62 64 67 69 69 70 71 73 75 76 77 77 78 78 78
41 38 36 33 31 30 29 30 31 32 33 34 35 37 38 39 40 41 42 43 44 44 44 43 43 43 43 43 43 44 44 45 45 46 47 48 48 49 50 51 53 55 57 60 62 64 66 67 68 68 68 69 69 70 72 74 75 75 76 76 77 77
38 35 33 30 28 28 28 30 32 33 35 36 37 38 39 39 40 40 41 42 42 42 43 43 43 43 43 44 44 44 44 45 46 46 47 48 49 50 52 54 56 59 61 64 67 68 68 67 66 67 68 70 72 73 75 76 77 77 76 76 75 76
34 32 29 28 28 29 31 33 34 35 36 37 37 38 38 38 39 39 40 41 42 42 43 43 43 44 44 44 44 44 44 45 46 46 48 49 50 52 55 57 60 62 65 67 67 67 65 65 66 69 71 74 76 78 79 80 80 79 78 77 76 76
31 29 29 30 32 34 35 36 36 36 36 36 36 36 37 37 39 40 41 42 42 43 43 43 43 43 43 43 43 44 44 45 46 48 49 51 53 55 58 60 63 65 66 65 64 64 65 65 69 73 76 77 78 77 76 76 75 74 74 73 73 73
30 31 33 36 37 37 36 36 35 35 34 34 34 35 36 37 39 40 41 42 43 43 43 43 43 43 42 43 43 44 45 46 48 50 52 54 56 58 61 63 65 65 64 62 62 64 66 68 71 74 73 71 68 66 64 63 61 60 59 59 59 60
35 36 37 37 36 35 34 34 34 34 34 34 34 35 36 37 39 40 42 42 42 42 42 42 42 42 42 42 43 45 46 48 50 51 54 56 59 61 64 66 64 62 60 61 63 65 67 69 71 69 64 59 57 56 55 53 52 51 50 50 49 50
37 36 36 34 33 33 33 33 34 35 35 35 35 36 37 38 39 40 41 40 40 40 40 40 40 41 42 43 44 46 48 49 51 53 55 58 61 64 65 64 61 59 60 62 63 64 68 70 66 60 56 54 54 53 52 50 49 48 47 46 46 47
34 33 32 32 32 32 33 34 35 36 37 37 37 38 38 39 40 40 39 39 39 39 39 39 40 41 42 44 46 47 49 50 52 55 57 60 63 64 62 59 58 60 61 61 62 64 67 66 59 54 53 53 51 49 47 45 44 43 42 42 43 44
32 31 31 31 32 33 34 35 36 37 37 38 38 39 40 40 41 40 39 39 38 38 39 39 40 42 43 45 47 48 49 51 54 56 59 62 63 61 58 57 59 60 61 60 61 65 65 60 54 52 52 50 46 44 42 41 41 40 40 40 41 43
31 31 31 32 33 34 34 35 37 37 38 38 39 39 40 41 41 40 39 39 39 39 39 40 41 43 44 46 47 48 50 52 55 58 61 61 59 56 55 57 59 59 59 60 61 64 62 55 50 50 49 46 43 42 41 41 41 42 42 42 42 43
32 32 33 33 33 34 35 35 36 37 38 38 39 40 41 41 41 40 39 38 38 38 39 40 41 43 44 46 47 49 51 54 57 59 59 57 54 54 56 57 57 58 59 59 61 63 58 50 47 48 46 44 42 41 41 42 44 45 47 47 46 46
34 34 34 34 34 34 35 35 36 37 38 38 39 40 41 41 40 39 38 38 38 38 39 40 42 43 44 46 48 50 53 55 57 58 55 52 52 54 56 56 56 57 59 59 60 60 54 47 45 45 43 42 42 41 41 42 44 46 48 49 48 47
36 35 35 35 35 34 35 35 36 37 38 39 40 41 41 41 40 38 37 36 37 38 39 40 42 43 45 46 49 51 54 56 57 55 52 50 51 53 54 54 55 57 58 58 60 59 52 44 43 42 41 40 40 39 40 41 43 44 46 48 48 47
37 37 37 36 35 35 35 36 37 38 39 40 41 41 41 41 39 37 35 35 36 38 39 41 42 43 45 47 49 52 54 55 54 51 49 49 51 52 52 53 55 56 57 57 57 56 50 43 40 40 39 39 39 39 40 41 42 43 45 46 46 45
39 38 38 37 35 35 35 36 38 39 39 40 41 41 41 40 37 35 34 35 36 38 40 41 42 44 45 47 49 52 53 53 50 48 48 49 49 50 51 53 54 55 55 56 55 52 48 43 39 39 40 40 40 41 41 42 42 43 43 43 42 43
40 40 39 37 36 36 36 37 38 39 39 40 41 40 39 37 35 33 33 35 37 39 40 42 43 44 46 48 50 52 52 50 47 47 47 48 47 48 50 52 53 53 54 54 53 51 48 44 40 39 41 42 43 43 43 43 43 43 42 41 41 41
41 41 39 37 36 36 37 38 38 39 39 39 39 38 37 34 33 32 33 35 37 39 41 42 43 45 46 48 50 51 50 47 45 46 47 46 45 47 50 51 53 54 54 55 54 53 51 47 43 41 41 42 42 42 42 42 43 42 41 40 40 40
41 41 39 38 37 37 37 38 38 38 38 38 38 36 34 32 32 32 34 36 38 40 41 42 43 45 47 48 50 51 49 45 43 45 46 45 44 45 48 50 52 54 54 55 54 53 52 50 47 44 43 41 40 40 40 40 39 38 38 37 36 37
41 40 39 37 37 37 37 37 37 38 37 37 36 33 31 31 32 33 35 37 39 40 42 42 44 45 47 48 50 51 49 45 42 41 42 42 43 44 45 47 50 52 52 53 53 52 51 49 47 45 43 41 39 39 40 39 37 36 35 33 33 34
41 39 38 37 37 37 37 37 37 37 37 35 33 31 30 31 32 34 36 38 40 41 42 43 44 46 47 49 50 50 48 47 45 42 38 37 40 42 44 46 48 49 49 49 50 50 50 48 46 44 43 41 39 39 40 40 37 35 33 31 30 32
40 38 37 37 37 36 35 36 37 36 36 34 32 30 30 32 34 36 37 39 40 41 42 43 45 46 48 49 49 49 47 46 47 46 41 36 36 37 39 43 46 47 48 47 46 46 46 45 45 44 42 41 39 38 39 40 37 33 31 30 30 30
39 37 37 36 36 35 34 35 36 35 34 33 31 31 32 34 36 37 39 40 41 42 42 44 45 47 48 49 49 48 46 44 45 45 43 41 38 36 35 37 39 41 43 44 43 43 42 42 42 42 42 42 40 39 39 39 36 31 28 28 29 27
38 37 37 36 35 34 34 34 34 34 33 32 32 33 35 36 37 39 40 41 42 42 43 44 46 48 49 49 48 46 45 44 43 42 42 42 42 41 39 39 38 37 38 39 40 39 38 37 38 38 39 40 40 39 39 39 36 31 27 25 24 22
37 37 37 36 35 34 33 33 33 32 32 32 33 35 36 38 39 40 40 41 42 43 44 46 47 48 49 48 47 45 43 42 42 41 40 40 41 41 42 41 40 38 36 36 37 36 34 34 34 35 35 36 37 37 37 37 35 32 27 24 22 20
Wind_Direction
261 266 273 281 288 293 295 296 297 297 298 297 296 295 295 295 295 296 296 298 299 300 300 300 300 300 301 301 301 300 299 298 297 297 296 295 295 295 295 294 293 291 288 284 279 274 271 270 270 270 271 271 271 271 271 271 271 270 270 270 270 269
269 277 284 288 290 292 293 294 294 294 294 293 293 293 293 293 294 294 296 297 299 299 299 299 299 298 298 297 297 297 296 295 293 292 291 290 289 288 288 288 288 288 288 287 285 282 277 273 271 270 269 269 269 270 270 270 269 268 267 267 268 269
282 287 289 290 291 292 293 293 293 293 294 293 293 293 292 293 293 294 295 296 297 298 298 298 298 298 297 296 295 294 293 292 291 290 290 289 288 287 285 285 284 284 284 285 285 285 284 282 279 276 273 271 270 271 272 272 271 270 269 267 266 267
287 288 288 289 289 290 291 292 292 292 293 293 293 293 293 293 293 294 295 296 297 297 297 297 297 297 296 295 294 294 293 292 290 289 289 288 289 289 288 288 287 286 285 285 285 285 285 285 284 282 280 277 275 273 272 272 273 273 272 272 270 269
285 286 286 287 288 289 291 292 293 294 294 294 294 295 295 296 297 298 298 298 298 297 297 296 296 295 294 294 293 293 293 293 292 291 290 289 288 289 289 289 289 289 289 289 288 288 287 287 286 286 285 284 282 279 276 274 273 272 272 272 272 272
286 287 288 289 290 292 293 293 294 295 295 296 296 297 299 300 301 301 301 299 298 298 298 298 297 296 295 294 293 293 293 293 293 293 292 291 290 289 289 289 289 289 290 290 291 291 291 290 289 288 288 288 287 286 283 281 278 276 274 272 271 271
288 289 290 291 292 293 294 294 295 297 297 298 299 299 300 300 300 299 298 297 297 298 299 298 297 296 295 294 294 293 293 293 293 293 293 292 291 291 290 290 290 289 289 290 290 290 291 291 290 290 289 289 289 288 287 286 284 281 279 277 275 273
289 290 290 291 292 293 295 296 298 299 300 299 298 297 296 296 296 295 294 295 296 297 296 295 295 295 295 295 296 296 296 295 295 295 295 294 293 293 292 291 291 291 290 290 290 289 289 289 289 288 288 288 288 287 287 286 285 284 282 280 279 277
290 291 292 293 294 296 298 299 300 299 298 297 295 294 294 293 292 292 293 295 296 295 295 295 295 296 297 298 299 299 299 298 298 298 297 296 296 295 294 293 292 292 291 291 290 290 289 288 288 288 287 287 286 286 285 284 283 282 281 280 279 278
291 292 294 295 296 297 298 298 297 296 294 293 292 292 291 290 290 291 293 295 294 294 295 296 297 297 298 299 299 299 298 297 297 296 295 295 294 293 293 292 292 291 291 291 290 290 289 289 289 288 288 287 286 286 285 283 282 281 280 278 277 276
291 292 294 295 295 296 295 294 293 291 290 290 290 290 289 288 288 290 292 292 291 292 293 295 296 297 298 299 298 297 296 294 293 292 291 291 291 291 291 291 291 291 291 290 290 290 289 289 289 289 288 288 287 286 285 284 283 282 281 279 278 277
290 292 293 293 294 293 292 292 290 288 288 288 288 288 288 288 289 290 291 291 291 292 294 295 297 298 299 298 297 296 295 294 293 292 292 292 291 292 292 292 292 292 292 291 290 290 289 289 288 288 288 288 288 287 286 285 283 282 281 280 279 278
289 290 291 291 292 291 290 289 288 287 288 289 289 290 291 292 293 294 295 295 296 296 297 298 299 300 299 298 297 297 297 296 296 296 296 296 296 296 295 295 294 294 294 293 292 291 291 290 290 290 290 289 289 288 287 285 284 282 281 280 280 278
289 289 289 290 290 289 288 287 288 289 291 292 293 294 295 296 297 298 299 299 299 300 300 301 301 301 300 300 300 300 299 299 299 299 299 300 299 299 298 298 297 296 296 296 295 295 294 294 294 293 292 290 289 288 287 285 284 283 281 280 279 278
287 287 288 289 288 286 286 287 289 290 292 294 295 297 298 299 300 300 301 301 301 302 302 302 302 302 302 302 302 302 301 301 301 301 301 300 300 300 300 299 299 299 299 299 298 298 298 298 296 295 293 292 290 289 287 286 285 283 282 281 280 279
286 287 289 288 287 287 287 288 290 292 293 295 298 299 301 301 302 302 302 303 303 303 303 303 304 304 304 303 303 303 302 301 301 300 300 301 300 300 301 301 301 301 302 302 301 301 300 299 297 295 294 292 291 289 287 286 285 284 283 282 281 280
285 287 287 287 287 288 290 291 292 294 295 297 299 300 301 302 303 303 303 303 303 303 303 303 303 303 303 302 302 301 301 300 300 301 301 301 301 302 303 303 304 304 304 304 303 301 299 298 296 295 294 292 291 290 288 286 285 284 283 282 281 280
283 283 285 288 290 291 293 294 294 294 296 297 299 300 301 301 301 301 301 301 301 301 302 302 302 301 300 300 300 300 300 300 301 302 302 302 304 305 306 307 307 307 305 303 301 300 299 298 297 297 296 295 293 291 289 287 286 285 284 282 281 280
279 282 286 289 292 293 294 295 295 296 298 300 300 301 300 300 300 300 301 301 301 301 301 300 299 299 299 299 299 300 301 302 303 304 304 305 307 307 308 309 308 306 304 302 301 301 300 299 300 300 298 296 294 293 291 290 289 288 287 286 284 283
282 286 289 291 293 294 296 297 298 299 301 302 302 301 300 300 300 300 301 301 302 302 300 298 298 298 298 300 301 302 303 304 305 306 307 308 309 309 310 309 307 304 303 302 302 302 302 303 303 302 299 297 296 295 294 294 293 293 292 290 289 288
288 290 292 294 295 297 298 300 301 302 303 303 303 302 301 301 300 301 301 303 303 301 299 298 298 299 300 301 303 304 305 306 307 308 310 310 311 311 310 308 305 304 303 304 304 305 306 307 305 301 298 298 297 296 295 294 294 294 294 294 293 292
293 294 295 296 298 300 301 302 302 304 304 305 304 303 303 302 302 302 303 304 303 300 299 298 299 300 302 304 305 306 307 309 310 310 311 311 311 310 308 306 305 305 305 306 307 308 310 309 305 301 300 300 298 297 295 293 293 294 295 296 297 297
295 295 296 298 300 302 303 303 304 305 305 304 304 304 303 303 302 303 304 304 302 300 299 299 300 302 304 306 307 308 310 312 312 312 312 312 311 309 307 306 306 306 307 309 310 312 313 309 304 303 303 302 300 298 295 293 293 294 295 296 298 299
295 296 298 300 302 303 304 304 304 304 304 304 303 303 302 302 302 302 302 302 300 299 299 300 302 304 306 308 309 311 313 314 314 313 313 312 310 308 307 308 308 309 310 312 313 314 313 308 305 306 306 303 301 299 297 295 295 294 294 295 296 297
297 298 299 301 303 303 303 303 303 303 303 303 303 302 302 302 301 301 300 300 299 299 300 301 304 306 308 310 312 313 314 315 315 315 314 312 309 308 309 310 311 312 313 313 314 315 313 309 308 310 309 305 302 300 299 299 298 297 296 294 294 295
298 298 300 301 302 302 302 302 302 302 302 302 302 301 302 302 301 300 299 298 298 298 300 303 306 308 310 312 314 315 316 316 316 315 313 311 310 310 311 313 314 315 315 315 315 315 313 310 310 313 311 308 304 301 300 298 296 295 294 293 293 294
298 298 299 301 301 301 301 301 301 301 301 300 300 300 301 301 300 298 297 297 297 299 301 304 307 309 311 313 315 316 317 318 317 315 312 311 312 313 314 316 316 316 316 316 316 316 314 311 312 314 312 306 301 298 295 293 292 292 292 291 291 292
297 297 298 299 300 299 299 299 299 299 299 299 299 299 300 299 297 296 295 296 297 300 302 305 308 310 312 315 317 318 319 319 316 314 312 313 314 315 317 318 317 316 317 317 317 317 315 311 312 314 312 307 303 300 297 295 294 293 291 290 290 292
295 295 296 298 298 297 297 297 298 298 298 298 298 298 298 296 295 294 294 296 298 301 304 307 309 311 313 316 318 319 320 318 315 313 313 315 316 318 318 318 317 317 317 317 318 319 317 313 313 315 315 313 310 306 303 301 298 296 294 292 292 295
293 294 295 297 297 297 297 297 297 297 297 297 297 297 295 293 292 293 294 296 299 302 305 308 310 312 314 317 319 320 320 317 314 313 315 317 318 319 319 318 317 318 319 320 322 323 321 318 316 316 316 316 314 311 309 307 305 303 301 299 297 298
292 293 295 296 296 296 296 296 296 296 297 297 296 295 293 291 291 292 295 297 300 303 306 309 311 313 316 318 320 321 319 316 314 314 316 318 320 320 320 320 319 321 322 324 325 326 324 322 319 317 316 316 314 313 312 310 309 307 304 303 303 303
290 292 293 294 294 294 294 294 295 295 296 296 294 292 290 289 290 292 295 298 301 304 307 310 312 315 317 319 321 321 318 315 314 316 318 319 321 322 321 321 321 323 325 326 327 326 325 323 321 318 316 315 313 310 308 308 307 305 304 303 304 304
289 291 292 292 292 292 293 293 294 294 295 294 291 288 287 287 289 292 295 299 302 305 308 311 313 315 318 320 321 320 317 314 314 317 318 320 321 322 321 321 322 324 326 327 327 326 325 323 320 317 314 313 310 307 305 306 306 306 307 307 305 303
289 290 290 290 290 291 292 292 292 293 293 292 288 285 285 287 290 293 296 300 303 306 309 311 313 316 318 320 320 319 316 313 314 316 318 319 320 321 322 322 323 324 326 326 326 326 324 322 319 316 313 311 309 306 304 305 306 309 312 312 307 305
289 288 288 288 288 289 290 290 291 291 291 289 284 282 284 287 291 294 297 301 304 307 309 312 313 316 318 319 319 317 314 314 315 317 318 320 321 321 322 323 324 325 326 327 327 325 324 322 319 316 313 310 308 305 303 304 307 311 314 313 309 307
287 286 286 286 286 287 287 288 288 289 288 285 282 282 284 288 292 296 299 302 304 307 309 311 313 315 317 318 318 315 314 314 316 318 319 320 321 322 323 323 324 324 326 328 327 326 325 322 318 316 313 311 309 307 304 305 307 310 313 315 312 307
286 286 285 285 285 285 285 286 286 286 285 282 281 282 285 289 293 297 300 303 305 307 309 311 312 314 316 316 316 314 313 315 317 318 319 321 322 324 325 326 326 327 327 328 329 328 326 322 318 316 313 311 310 309 306 307 308 308 311 317 313 299
285 285 284 284 284 284 284 284 283 283 282 280 281 283 287 290 294 297 300 303 305 307 309 310 311 313 314 315 314 312 312 315 317 318 319 320 321 324 325 326 328 330 332 332 332 331 329 325 321 318 315 312 311 310 309 310 310 309 311 317 316 300
Height
3096 3095 3094 3093 3091 3090 3089 3089 3088 3088 3087 3086 3085 3085 3084 3083 3081 3080 3079 3077 3077 3076 3075 3074 3073 3072 3071 3070 3069 3068 3066 3065 3064 3063 3061 3060 3058 3056 3055 3054 3053 3053 3052 3052 3052 3051 3051 3049 3048 3047 3046 3044 3043 3042 3041 3040 3039 3039 3038 3037 3036 3035
3093 3092 3090 3089 3088 3087 3087 3086 3085 3085 3084 3083 3082 3081 3080 3079 3077 3076 3075 3074 3073 3072 3071 3070 3069 3068 3067 3065 3064 3063 3061 3060 3059 3058 3057 3055 3054 3052 3050 3049 3048 3047 3046 3045 3045 3044 3044 3043 3042 3040 3039 3038 3037 3035 3034 3033 3032 3032 3031 3031 3030 3029
3089 3088 3087 3086 3085 3083 3083 3082 3081 3081 3080 3079 3078 3077 3076 3074 3073 3072 3070 3069 3068 3067 3066 3064 3063 3062 3061 3060 3059 3058 3056 3055 3053 3052 3051 3049 3048 3046 3045 3044 3042 3041 3040 3039 3038 3037 3036 3036 3035 3034 3033 3032 3031 3029 3028 3026 3025 3025 3024 3023 3023 3023
3085 3084 3083 3082 3081 3080 3079 3078 3078 3077 3076 3075 3073 3072 3071 3070 3069 3067 3066 3064 3063 3062 3061 3060 3058 3057 3055 3054 3053 3052 3050 3049 3048 3046 3045 3043 3041 3040 3038 3037 3036 3035 3034 3033 3032 3031 3029 3028 3028 3027 3026 3026 3025 3024 3022 3020 3019 3017 3017 3016 3015 3015
3081 3080 3079 3078 3077 3076 3075 3074 3073 3072 3071 3070 3069 3067 3066 3065 3064 3062 3061 3059 3058 3057 3056 3054 3053 3052 3050 3049 3047 3046 3045 3043 3042 3041 3040 3038 3037 3035 3033 3031 3030 3028 3027 3026 3025 3024 3023 3021 3020 3020 3019 3018 3017 3016 3015 3014 3013 3011 3010 3009 3008 3007
3077 3076 3075 3074 3073 3072 3071 3069 3069 3067 3066 3065 3063 3062 3060 3059 3057 3056 3055 3053 3052 3051 3050 3049 3048 3046 3045 3044 3043 3041 3040 3038 3037 3035 3034 3033 3032 3030 3029 3027 3025 3023 3021 3020 3018 3017 3016 3014 3013 3012 3011 3010 3008 3007 3006 3006 3005 3004 3003 3002 3001 3000
3072 3071 3070 3070 3068 3067 3066 3065 3063 3062 3060 3059 3057 3056 3055 3053 3052 3051 3049 3048 3047 3046 3045 3044 3043 3042 3040 3039 3038 3037 3035 3034 3032 3031 3029 3027 3026 3025 3023 3022 3020 3018 3016 3015 3013 3011 3009 3008 3006 3005 3004 3002 3000 2998 2996 2995 2994 2994 2993 2993 2993 2992
3067 3066 3066 3064 3063 3062 3060 3059 3057 3056 3054 3053 3051 3050 3049 3048 3047 3046 3045 3044 3043 3042 3041 3039 3038 3037 3035 3034 3033 3031 3030 3028 3027 3025 3024 3022 3020 3019 3017 3016 3014 3012 3011 3009 3007 3005 3003 3001 3000 2998 2996 2994 2992 2989 2988 2986 2984 2983 2983 2983 2983 2983
3062 3061 3060 3058 3057 3055 3054 3053 3051 3050 3048 3047 3046 3045 3045 3044 3043 3042 3041 3040 3039 3037 3036 3035 3033 3032 3030 3029 3027 3026 3024 3022 3021 3019 3017 3016 3014 3012 3011 3009 3007 3006 3004 3002 3000 2998 2996 2994 2993 2990 2988 2985 2982 2980 2978 2977 2976 2974 2973 2973 2973 2973
3056 3055 3054 3053 3051 3050 3049 3047 3046 3045 3044 3043 3042 3041 3041 3040 3039 3038 3037 3036 3034 3033 3031 3030 3029 3027 3026 3024 3022 3021 3019 3017 3015 3013 3011 3009 3007 3006 3004 3002 3000 2999 2997 2995 2993 2991 2989 2987 2986 2983 2980 2976 2973 2970 2968 2966 2965 2964 2963 2963 2963 2963
3051 3050 3049 3047 3046 3045 3044 3043 3042 3041 3040 3039 3038 3038 3037 3036 3035 3034 3033 3031 3030 3029 3027 3026 3024 3022 3020 3019 3017 3015 3013 3011 3010 3008 3006 3004 3002 3000 2998 2996 2994 2992 2990 2989 2987 2985 2983 2980 2979 2976 2972 2968 2964 2961 2958 2956 2954 2952 2951 2951 2951 2952
3047 3045 3044 3043 3042 3040 3040 3039 3038 3037 3036 3035 3034 3033 3032 3032 3031 3029 3028 3026 3025 3023 3022 3020 3018 3016 3014 3012 3011 3009 3007 3005 3003 3001 3000 2998 2996 2995 2992 2991 2989 2986 2984 2982 2980 2978 2976 2974 2972 2969 2964 2960 2956 2952 2949 2946 2944 2943 2941 2939 2939 2939
3042 3041 3040 3038 3038 3036 3035 3034 3034 3033 3032 3031 3030 3029 3028 3026 3025 3023 3022 3020 3019 3017 3015 3013 3012 3010 3008 3006 3004 3002 3000 2998 2996 2994 2993 2991 2990 2988 2986 2984 2982 2980 2977 2974 2972 2970 2968 2966 2965 2961 2956 2952 2948 2943 2939 2936 2934 2933 2931 2929 2928 2927
3037 3036 3035 3034 3033 3032 3031 3030 3029 3028 3027 3026 3025 3024 3022 3021 3019 3017 3015 3013 3012 3010 3008 3006 3004 3002 3000 2998 2997 2995 2993 2991 2989 2987 2986 2984 2982 2980 2979 2977 2974 2972 2970 2966 2963 2961 2958 2957 2955 2950 2945 2942 2939 2934 2929 2925 2923 2922 2920 2919 2917 2916
3033 3032 3031 3030 3029 3028 3027 3026 3025 3024 3023 3021 3020 3018 3017 3015 3013 3011 3009 3007 3005 3003 3001 2999 2997 2995 2993 2992 2990 2988 2987 2985 2983 2981 2979 2977 2975 2973 2971 2969 2966 2964 2961 2956 2953 2951 2948 2946 2942 2937 2933 2930 2926 2923 2918 2914 2912 2911 2909 2908 2906 2905
3027 3027 3026 3025 3024 3024 3023 3022 3021 3020 3018 3017 3015 3013 3011 3009 3007 3004 3002 3000 2998 2996 2995 2993 2991 2989 2987 2985 2983 2982 2980 2978 2976 2975 2972 2970 2968 2966 2964 2961 2958 2955 2951 2947 2943 2940 2938 2935 2930 2925 2921 2917 2913 2910 2905 2902 2900 2898 2897 2896 2895 2893
3023 3022 3021 3021 3020 3019 3018 3017 3016 3015 3013 3011 3009 3007 3005 3003 3001 2998 2997 2995 2993 2991 2989 2987 2985 2983 2981 2979 2977 2976 2974 2972 2970 2968 2966 2964 2962 2959 2956 2953 2950 2946 2942 2938 2933 2929 2927 2925 2919 2913 2910 2905 2900 2896 2892 2889 2886 2885 2884 2883 2883 2881
3019 3018 3018 3017 3016 3015 3013 3012 3011 3009 3007 3006 3004 3002 3000 2998 2996 2993 2991 2989 2987 2985 2983 2981 2979 2977 2975 2974 2972 2970 2968 2966 2964 2961 2959 2957 2954 2951 2948 2945 2941 2937 2932 2929 2924 2919 2917 2914 2908 2901 2897 2892 2886 2882 2878 2875 2872 2871 2870 2869 2869 2867
3015 3014 3013 3012 3011 3009 3008 3006 3005 3003 3002 3000 2999 2997 2995 2993 2991 2989 2986 2984 2982 2980 2978 2975 2973 2972 2970 2968 2966 2964 2962 2959 2957 2954 2951 2949 2946 2943 2940 2936 2932 2928 2923 2919 2915 2910 2906 2903 2897 2890 2884 2880 2874 2869 2866 2863 2861 2860 2858 2857 2857 2855
3011 3010 3008 3007 3006 3004 3002 3001 2999 2998 2997 2995 2994 2992 2990 2988 2986 2984 2981 2979 2977 2975 2972 2970 2968 2966 2964 2962 2960 2958 2956 2953 2950 2947 2944 2940 2938 2935 2931 2927 2923 2919 2914 2910 2906 2901 2895 2892 2886 2878 2873 2870 2865 2860 2857 2854 2852 2850 2849 2847 2847 2845
3005 3004 3003 3002 3000 2999 2997 2996 2994 2993 2991 2990 2988 2987 2985 2983 2981 2979 2976 2974 2972 2969 2967 2965 2963 2961 2959 2957 2955 2952 2950 2947 2944 2940 2937 2933 2930 2926 2923 2918 2914 2910 2906 2901 2897 2892 2885 2880 2875 2869 2864 2861 2858 2853 2850 2847 2844 2842 2840 2839 2838 2836
2999 2998 2997 2996 2995 2994 2992 2990 2989 2987 2986 2984 2983 2981 2979 2977 2975 2973 2971 2969 2967 2964 2962 2960 2958 2956 2954 2952 2949 2947 2944 2940 2937 2934 2930 2927 2922 2918 2914 2910 2905 2901 2897 2893 2888 2883 2876 2870 2865 2861 2856 2854 2850 2846 2843 2840 2837 2835 2833 2831 2830 2828
2994 2993 2992 2991 2990 2989 2987 2985 2984 2982 2980 2979 2977 2975 2973 2971 2969 2967 2965 2963 2961 2959 2957 2955 2953 2950 2948 2946 2943 2941 2938 2934 2930 2927 2923 2919 2915 2910 2906 2902 2897 2892 2888 2884 2879 2873 2867 2861 2856 2853 2849 2846 2843 2840 2836 2833 2831 2828 2826 2825 2823 2821
2990 2989 2987 2986 2985 2983 2982 2980 2978 2977 2975 2973 2972 2970 2968 2966 2964 2962 2960 2958 2956 2954 2952 2950 2947 2945 2943 2940 2937 2934 2931 2928 2923 2920 2916 2912 2907 2903 2899 2894 2889 2884 2879 2875 2870 2865 2859 2854 2849 2846 2842 2839 2836 2833 2829 2827 2824 2822 2819 2817 2816 2813
2984 2983 2982 2981 2980 2978 2977 2975 2973 2971 2970 2968 2966 2965 2962 2961 2959 2957 2955 2953 2951 2949 2947 2945 2942 2940 2937 2934 2931 2928 2925 2921 2917 2913 2909 2905 2900 2896 2891 2886 2881 2876 2871 2867 2862 2857 2852 2847 2843 2839 2836 2833 2830 2826 2823 2820 2818 2815 2812 2810 2808 2806
2979 2978 2977 2976 2975 2973 2972 2970 2968 2966 2964 2963 2961 2959 2957 2955 2954 2952 2950 2948 2946 2944 2942 2940 2938 2935 2932 2928 2925 2922 2918 2915 2911 2906 2902 2898 2893 2889 2884 2879 2873 2868 2863 2858 2854 2850 2845 2841 2838 2834 2830 2826 2823 2820 2817 2814 2812 2809 2806 2802 2800 2798
2974 2973 2972 2971 2970 2968 2966 2964 2963 2961 2959 2957 2956 2954 2952 2950 2948 2946 2945 2943 2941 2939 2937 2935 2933 2930 2926 2923 2919 2916 2912 2908 2904 2900 2896 2892 2887 2882 2877 2871 2866 2861 2856 2851 2846 2842 2838 2835 2832 2829 2826 2822 2818 2815 2813 2810 2806 2803 2800 2796 2793 2791
2969 2968 2967 2966 2964 2963 2961 2959 2957 2956 2954 2952 2950 2948 2947 2945 2943 2941 2940 2938 2936 2934 2932 2930 2927 2924 2921 2918 2914 2910 2906 2902 2898 2894 2890 2886 2881 2876 2870 2865 2859 2855 2850 2844 2839 2835 2831 2829 2827 2824 2821 2816 2812 2809 2806 2802 2799 2797 2794 2790 2787 2784
2964 2963 2961 2960 2959 2957 2956 2953 2952 2950 2949 2947 2945 2943 2941 2939 2937 2936 2935 2933 2931 2929 2927 2924 2922 2919 2916 2912 2909 2905 2901 2896 2892 2888 2884 2880 2875 2870 2864 2859 2854 2849 2843 2838 2833 2829 2824 2822 2820 2818 2814 2809 2805 2801 2797 2794 2791 2789 2786 2783 2780 2777
2959 2957 2956 2955 2953 2951 2950 2948 2946 2945 2943 2941 2939 2937 2936 2934 2932 2931 2930 2928 2926 2924 2922 2919 2916 2913 2910 2907 2903 2899 2895 2891 2887 2883 2880 2876 2870 2864 2858 2853 2847 2843 2837 2831 2826 2821 2817 2815 2813 2811 2807 2802 2798 2794 2790 2787 2783 2780 2777 2775 2772 2769
2954 2952 2951 2949 2947 2946 2944 2942 2940 2939 2937 2936 2934 2932 2930 2929 2928 2926 2925 2923 2921 2919 2916 2914 2911 2907 2904 2901 2898 2894 2890 2886 2882 2878 2875 2871 2866 2859 2853 2846 2840 2835 2830 2824 2819 2814 2809 2807 2806 2804 2802 2797 2793 2789 2785 2781 2778 2774 2771 2768 2765 2762
2949 2947 2946 2944 2942 2940 2938 2936 2934 2933 2932 2930 2928 2927 2925 2924 2923 2922 2920 2918 2916 2914 2911 2909 2905 2902 2899 2895 2892 2888 2885 2882 2879 2874 2869 2865 2861 2856 2850 2843 2836 2831 2825 2819 2813 2809 2804 2801 2798 2797 2795 2792 2788 2785 2781 2778 2775 2771 2767 2764 2761 2757
2943 2942 2940 2938 2937 2935 2933 2931 2929 2927 2926 2924 2923 2922 2920 2919 2918 2917 2915 2913 2911 2909 2906 2903 2900 2896 2893 2890 2886 2882 2879 2877 2875 2873 2868 2862 2856 2852 2847 2841 2835 2829 2823 2816 2810 2805 2802 2798 2795 2792 2790 2787 2784 2780 2777 2774 2771 2768 2764 2761 2757 2752
2938 2937 2935 2933 2931 2929 2928 2925 2923 2922 2920 2919 2918 2917 2916 2915 2914 2912 2910 2908 2906 2903 2901 2898 2894 2891 2888 2884 2881 2877 2873 2870 2868 2867 2866 2862 2855 2849 2843 2838 2832 2826 2821 2816 2809 2803 2799 2795 2792 2789 2786 2783 2780 2776 2772 2769 2767 2764 2761 2757 2752 2748
2932 2931 2929 2927 2925 2924 2922 2920 2918 2916 2915 2914 2913 2912 2911 2910 2909 2907 2905 2903 2901 2898 2896 2892 2889 2886 2882 2879 2876 2872 2869 2865 2861 2858 2857 2857 2854 2850 2843 2836 2829 2823 2817 2813 2808 2803 2797 2792 2788 2785 2781 2778 2775 2772 2768 2764 2762 2761 2758 2753 2748 2744
2926 2925 2923 2922 2920 2919 2917 2915 2912 2911 2910 2909 2908 2907 2906 2905 2903 2902 2900 2898 2895 2893 2890 2887 2884 2881 2877 2874 2870 2867 2864 2861 2856 2852 2848 2846 2845 2844 2842 2837 2830 2823 2816 2811 2806 2801 2796 2791 2786 2781 2777 2773 2770 2768 2764 2760 2758 2756 2754 2750 2744 2740
2920 2919 2917 2916 2914 2913 2911 2909 2907 2906 2906 2904 2903 2902 2901 2900 2898 2896 2894 2892 2890 2888 2885 2882 2879 2875 2872 2869 2866 2862 2859 2856 2852 2849 2845 2840 2837 2834 2832 2830 2826 2822 2816 2810 2804 2800 2795 2790 2785 2780 2775 2770 2766 2763 2759 2756 2753 2751 2750 2747 2743 2739
2914 2913 2911 2910 2909 2907 2906 2904 2902 2901 2901 2899 2898 2897 2896 2895 2893 2891 2889 2887 2884 2882 2880 2877 2873 2870 2867 2864 2861 2858 2855 2851 2848 2844 2841 2838 2833 2829 2825 2822 2819 2816 2812 2806 2801 2797 2793 2788 2783 2778 2773 2768 2763 2759 2755 2751 2748 2746 2744 2742 2740 2736